STARLINK-11276, 61244

Orbit data source: Space-Track

STARLINK-11276, 61244 is a payload satellite owned by SpaceX/Seattle (US) in LEO that was launched on Wed, 25 Sep 2024 UTC via an FALCON 9 launch vehicle from the Air Force Western Test Range (AFWTR). Payload-class satellites include a variety of spacecraft equipped with specific instruments for various scientific and technological missions. These include communications satellites like Starlink; space stations such as the ISS; scientific satellites like the Hubble; Earth observation satellites from companies like Planet Labs, Umbra, and HawkEye 360; GPS; miniature CubeSats for education and research; and military/defense satellites.

Loading next visibility...
Identifier
61244, 2024-175B
Orbit
LEO
Last TLE update
1 day ago
Origin
Manufacturer
SpaceX/Seattle
Mission
Operational Commercial Communications
Bus & Motor
STARLINK V2M, Unknown motor
Mass
730 kg wet, ~700 kg dry
Launch date (UTC)
2024-09-25 (7 months ago)
Launch vehicle
FALCON 9
Launch site
Air Force Western Test Range (AFWTR)
Object type
Payload
Rocket body
Debris
Shape & HBR
Box + 2 Pan, 29 m
Radar Cross Section
36.964 m², Large (>1 m²)

Expand to show TLE details & history

TLE from 1 day ago
0 STARLINK-11276
1 61244U 24175B   25128.24701581  .00001034  00000-0  13401-4 0  9993
2 61244  53.1581 121.9568 0002063 117.2335 242.8893 15.69719152 35399
Epoch: 2025-05-08T05:55Z
Definitive object data (Epoch: 2025-05-08T05:55:42.165Z)
Latitude
-0.00007°
Longitude
166.71081°
Altitude
361.249 km
Speed
7.693 km/s
True Right ascension
08h 07m 49s
True Declination
0° 00' 00"
Sunlit
Object was in daylight at TLE epoch
Visualization TLE readout
Latitude
-13.86324°
Longitude
151.10714°
Altitude
364.45 km
Speed
7.691 km/s
Apparent Right ascension
05h 09m 05s
Apparent Declination
-31° 00' 10"
Sunlit
Object is in daylight
Visualization observer readout
Local Sidereal Time
14:27:01
Azimuth
272.373° WNW
Elevation
-56.13°
Doppler factor
1
Orbital elements
Apogee altitude
361.352 km
Perigee altitude
358.571 km
Semi-major axis
6,738.099 km
Eccentricity
0.0002063
Inclination
53.1581°
RAAN
121.9568°
Arg. of periapsis
117.2335°
True anomaly
242.86826°
Mean anomaly
242.8893°
Eccentric anomaly
242.87878°
Mean motion
3.92407 °/min
BSTAR
0.000013401
Orbital period
91.74 mins
Loading maneuver chart data...
Loading SW <> Apogee altitude chart data...
Loading historical data...
Loading historical data...
Loading historical data...
Loading historical data...
Loading historical data...
Loading historical data...
Loading historical data...

STARLINK-11276 Visibility forecast

Observer location: undefined°, undefined°

Span
Click to sort rows by Start time (UTC) header in descending order
Start Az.
Max El. time (UTC)
Max El. Az.
Max El.
End time (UTC)
End Az.
4 mins2025-05-09 08:23:13.082Z333.453° NNW2025-05-09 08:25:13.082Z38.837° NE29.805°2025-05-09 08:27:13.082Z96.969° ESE
|